Location: The Saddle
(36.8333°N, 80.3417°W)
Time: 10:48:28
(UTC-05:00)

X-37B - Visible Passes

Search period start: 03 December 2021 00:00
Search period end: 13 December 2021 00:00
Orbit: 330 x 341 km, 45.0° (Epoch: 20 November)

Date Brightness Start Highest point End Pass type
(mag) Time Alt. Az. Time Alt. Az. Time Alt. Az.
03 Dec 2.5 18:33:57 10° S 18:35:19 17° SSE 18:35:19 17° SSE visible
04 Dec 2.0 18:53:29 10° SW 18:55:10 30° SSW 18:55:10 30° SSW visible
05 Dec 2.3 17:39:24 10° S 17:41:27 18° SE 17:43:31 10° E visible
05 Dec 3.2 19:13:58 10° WSW 19:14:56 19° W 19:14:56 19° W visible
06 Dec 0.6 17:58:55 10° SW 18:01:44 55° SSE 18:03:24 21° ENE visible
07 Dec 0.9 18:19:23 10° WSW 18:22:10 49° NNW 18:23:02 34° NNE visible
08 Dec 2.1 18:40:21 10° WNW 18:42:38 24° NNW 18:42:38 24° NNW visible
09 Dec 3.2 19:01:31 10° NW 19:02:11 13° NW 19:02:11 13° NW visible
10 Dec 2.0 17:45:46 10° WNW 17:48:13 25° NNW 17:50:30 11° NE visible
11 Dec 2.4 18:06:56 10° NW 18:08:57 17° N 18:10:02 14° NNE visible
12 Dec 2.5 18:27:54 10° NW 18:29:35 15° N 18:29:35 15° N visible
